Change the Weather History Date:

Tuesday, January 15, 2013

  Actual Average Record
Temperature  
Mean Temperature 30 °F -  
Max Temperature 34 °F 31 °F 47 °F (1977)
Min Temperature 25 °F 20 °F -10 °F (1951)
Degree Days  
Heating Degree Days 35    
Moisture  
Dew Point 22 °F    
Average Humidity 71    
Maximum Humidity 96    
Minimum Humidity 56    
Precipitation  
Precipitation 0.00 in - - ()
Sea Level Pressure  
Sea Level Pressure 30.13 in    
Wind  
Wind Speed 9 mph (North)    
Max Wind Speed 16 mph    
Max Gust Speed 23 mph    
Visibility 10 miles    
Events      
Averages and records for this station are not official NWS values.
T = Trace of Precipitation, MM = Missing Value Source: NWS Daily Summary

Daily Weather History Graph

Daily Weather History Graph

Search for Another Location

Airport or City:

Trip Planner

Search our weather history database for the weather conditions in past years. The results will help you decide how hot, cold, wet, or windy it might be!

Date:

Astronomy

Jan. 15, 2013 Rise Set
Actual Time 9:45 AM AKST 4:29 PM AKST
Civil Twilight 8:52 AM AKST 5:22 PM AKST
Nautical Twilight 7:58 AM AKST 6:16 PM AKST
Astronomical Twilight 7:08 AM AKST 7:07 PM AKST
Moon 10:29 AM AKST (1/15) 11:05 PM AKST (1/15)
Length of Visible Light 8h 30m
Length of Day
6h 44m
Waxing Crescent, 20% of the Moon is Illuminated
Jan 15
Waxing Crescent
Jan 18
First Quarter
Jan 26
Full
Feb 3
Last Quarter
Feb 9
New

Hourly Weather History & Observations

Time (AKST) Temp. Windchill Dew Point Humidity Pressure Visibility Wind Dir Wind Speed Gust Speed Precip Events Conditions
12:53 AM 30.9 °F 26.2 °F 30.0 °F 96% 29.96 in 10.0 mi North 4.6 mph - N/A   Clear
1:53 AM 30.9 °F 27.5 °F 28.9 °F 92% 29.99 in 10.0 mi NNW 3.5 mph - N/A   Clear
3:53 AM 34.0 °F 23.8 °F 26.1 °F 73% 29.99 in 10.0 mi NNE 16.1 mph 21.9 mph N/A   Clear
4:53 AM 33.1 °F 24.4 °F 24.1 °F 70% 30.02 in 10.0 mi North 11.5 mph - N/A   Clear
5:53 AM 32.0 °F 23.0 °F 21.0 °F 64% 30.05 in 10.0 mi North 11.5 mph - N/A   Clear
6:53 AM 32.0 °F 22.1 °F 21.9 °F 66% 30.05 in 10.0 mi NNE 13.8 mph 20.7 mph N/A   Clear
7:53 AM 33.1 °F 23.9 °F 19.0 °F 56% 30.07 in 10.0 mi NNE 12.7 mph 23.0 mph N/A   Clear
8:53 AM 32.0 °F 22.1 °F 21.0 °F 64% 30.10 in 10.0 mi North 13.8 mph - N/A   Clear
9:53 AM 30.9 °F 21.7 °F 23.0 °F 72% 30.12 in 10.0 mi North 11.5 mph - N/A   Clear
10:53 AM 30.0 °F 22.4 °F 21.0 °F 69% 30.14 in 10.0 mi North 8.1 mph - N/A   Clear
11:53 AM 30.9 °F 21.2 °F 21.0 °F 67% 30.16 in 10.0 mi North 12.7 mph - N/A   Clear
12:53 PM 32.0 °F 22.5 °F 21.0 °F 64% 30.16 in 10.0 mi North 12.7 mph - N/A   Clear
1:53 PM 33.1 °F 24.4 °F 21.9 °F 64% 30.16 in 10.0 mi North 11.5 mph - N/A   Clear
2:53 PM 32.0 °F 23.0 °F 23.0 °F 69% 30.17 in 10.0 mi North 11.5 mph - N/A   Clear
3:53 PM 30.9 °F 22.8 °F 23.0 °F 72% 30.19 in 10.0 mi North 9.2 mph - N/A   Overcast
4:53 PM 30.9 °F 26.2 °F 21.0 °F 67% 30.19 in 10.0 mi North 4.6 mph - N/A   Partly Cloudy
5:53 PM 30.0 °F 22.4 °F 21.0 °F 69% 30.20 in 10.0 mi North 8.1 mph - N/A   Overcast
6:53 PM 30.0 °F 24.1 °F 21.0 °F 69% 30.20 in 10.0 mi North 5.8 mph - N/A   Overcast
7:53 PM 28.9 °F 21.9 °F 21.0 °F 72% 30.20 in 10.0 mi NNW 6.9 mph - N/A   Overcast
8:53 PM 28.0 °F 20.0 °F 19.0 °F 69% 30.20 in 10.0 mi North 8.1 mph - N/A   Overcast
9:53 PM 27.0 °F 21.6 °F 19.0 °F 72% 30.20 in 10.0 mi North 4.6 mph - N/A   Overcast
10:53 PM 26.1 °F - 19.0 °F 75% 30.19 in 10.0 mi Calm Calm - N/A   Clear
11:53 PM 25.0 °F 18.1 °F 19.0 °F 78% 30.20 in 10.0 mi NNW 5.8 mph - N/A   Overcast